User: anonymous   Login
Location: Caltech
(34.1382°N, 118.1253°W)
Time: 03:29:16
(UTC-08:00)
Language:

FENGYUN 3A - Orbit

View from above orbital plane
View from above orbital plane
View from above satellite
View from above satellite

Ground track
Ground track

The orbit data is extracted from the following two-line orbital elements,

1 32958U 08026A   16037.18469172 -.00000000  00000-0  19652-4 0  9996
2 32958  98.4709  83.0660 0008698 284.4262  75.5948 14.19601666398826
Epoch (UTC): 06 February 2016 04:25:57
Eccentricity: 0.0008698
inclination: 98.4709°
perigee height: 820 km
apogee height: 833 km
right ascension of ascending node: 83.0660°
argument of perigee: 284.4262°
revolutions per day: 14.19601666
mean anomaly at epoch: 75.5948°
orbit number at epoch: 39882

The dashed part of the orbit path shows where the satellite is in the earth's shadow,  

DLR